Wilmington, OH

3:46 PM EST on November 22, 2017 (GMT -0500)
Airborne

Weather History for KILN - February, 2013

Change the Weather History Date:

Saturday, February 16, 2013

  Actual Average (KFFO) Record (KFFO)
Temperature  
Mean Temperature 21 °F -  
Max Temperature 28 °F 40 °F 64 °F (2006)
Min Temperature 14 °F 23 °F -6 °F (2007)
Degree Days  
Heating Degree Days 44    
Moisture  
Dew Point 16 °F    
Average Humidity 77    
Maximum Humidity 95    
Minimum Humidity 59    
Precipitation  
Precipitation 0.01 in - - ()
Sea Level Pressure  
Sea Level Pressure 30.11 in    
Wind  
Wind Speed 8 mph (WNW)    
Max Wind Speed 20 mph    
Max Gust Speed 26 mph    
Visibility 6 miles    
Events Snow    
Averages and records for this station are not official NWS values.
T = Trace of Precipitation, MM = Missing Value Source: NWS Daily Summary

Daily Weather History Graph

Daily Weather History Graph

Search for Another Location

Airport or City:

Trip Planner

Search our weather history database for the weather conditions in past years. The results will help you decide how hot, cold, wet, or windy it might be!

Date:

Astronomy

Feb. 16, 2013 Rise Set
Actual Time 7:25 AM EST 6:13 PM EST
Civil Twilight 6:58 AM EST 6:40 PM EST
Nautical Twilight 6:26 AM EST 7:12 PM EST
Astronomical Twilight 5:55 AM EST 7:43 PM EST
Moon 10:40 AM EST (2/16) 12:10 AM EST (2/16)
Length of Visible Light 11h 42m
Length of Day
10h 47m
Waxing Crescent, 39% of the Moon is Illuminated
Feb 16
Waxing Crescent
Feb 17
First Quarter
Feb 25
Full
Mar 4
Last Quarter
Mar 11
New

Hourly Weather History & Observations

Time (EST) Temp. Windchill Dew Point Humidity Pressure Visibility Wind Dir Wind Speed Gust Speed Precip Events Conditions
12:54 AM 23.0 °F 15.8 °F 19.9 °F 88% 30.19 in 8.0 mi WNW 5.8 mph - N/A   Clear
1:54 AM 21.9 °F 15.7 °F 17.1 °F 82% 30.18 in 9.0 mi NNW 4.6 mph - N/A   Clear
2:54 AM 21.0 °F 16.2 °F 18.0 °F 88% 30.17 in 9.0 mi NW 3.5 mph - N/A   Clear
3:54 AM 19.9 °F - 17.1 °F 89% 30.15 in 7.0 mi Calm Calm - N/A   Clear
4:54 AM 18.0 °F - 16.0 °F 92% 30.15 in 5.0 mi Calm Calm - N/A   Clear
5:54 AM 15.1 °F - 12.9 °F 91% 30.15 in 4.0 mi Calm Calm - N/A   Clear
6:54 AM 14.0 °F - 12.9 °F 95% 30.15 in 4.0 mi Calm Calm - 0.01 in   Clear
7:54 AM 15.1 °F - 12.9 °F 91% 30.15 in 3.0 mi Calm Calm - N/A   Clear
8:54 AM 21.0 °F - 19.0 °F 92% 30.14 in 4.0 mi Calm Calm - N/A   Partly Cloudy
9:54 AM 25.0 °F 16.3 °F 19.9 °F 81% 30.14 in 8.0 mi SW 8.1 mph - N/A   Overcast
10:54 AM 26.1 °F 16.2 °F 19.9 °F 78% 30.14 in 8.0 mi WSW 10.4 mph - N/A   Overcast
11:54 AM 28.0 °F 18.6 °F 21.0 °F 75% 30.11 in 9.0 mi WSW 10.4 mph - 0.00 in   Overcast
12:10 PM 26.6 °F 16.8 °F 19.4 °F 74% 30.02 in 2.5 mi WNW 10.4 mph - 0.00 in Snow Light Snow
12:18 PM 26.6 °F 16.8 °F 21.2 °F 80% 30.02 in 1.0 mi WNW 10.4 mph - 0.00 in Snow Light Snow
12:28 PM 24.8 °F 14.0 °F 21.2 °F 86% 30.02 in 0.8 mi WNW 11.5 mph - 0.00 in Snow Light Snow
12:54 PM 25.0 °F 12.6 °F 21.0 °F 85% 30.11 in 0.8 mi WNW 15.0 mph - 0.00 in Snow Light Snow
1:03 PM 26.6 °F 15.2 °F 21.2 °F 80% 30.01 in 2.0 mi WNW 13.8 mph - 0.00 in Snow Light Snow
1:16 PM 26.6 °F 15.2 °F 19.4 °F 74% 30.00 in 4.0 mi West 13.8 mph - 0.00 in Snow Light Snow
1:54 PM 25.0 °F 14.2 °F 19.9 °F 81% 30.10 in 2.5 mi WNW 11.5 mph 20.7 mph 0.00 in Snow Light Snow
1:59 PM 24.8 °F 14.0 °F 19.4 °F 80% 30.00 in 5.0 mi WNW 11.5 mph - 0.00 in Snow Light Snow
2:54 PM 25.0 °F 13.6 °F 15.1 °F 66% 30.10 in 10.0 mi West 12.7 mph - 0.00 in   Overcast
3:54 PM 25.0 °F 12.2 °F 15.1 °F 66% 30.10 in 8.0 mi WNW 16.1 mph 21.9 mph N/A   Overcast
4:27 PM 24.8 °F 10.7 °F 15.8 °F 69% 30.01 in 9.0 mi WNW 19.6 mph 26.5 mph 0.00 in   Overcast
4:54 PM 23.0 °F 10.1 °F 12.9 °F 65% 30.13 in 7.0 mi WNW 15.0 mph - 0.00 in Snow Light Snow
5:23 PM 23.0 °F 8.3 °F 10.4 °F 59% 30.02 in 10.0 mi NW 19.6 mph 25.3 mph 0.00 in   Mostly Cloudy
5:54 PM 21.9 °F 8.2 °F 10.9 °F 63% 30.14 in 10.0 mi NW 16.1 mph - 0.00 in   Scattered Clouds
6:54 PM 21.0 °F 8.1 °F 10.9 °F 65% 30.16 in 10.0 mi WNW 13.8 mph - N/A   Overcast
7:54 PM 19.9 °F 8.6 °F 12.9 °F 74% 30.16 in 8.0 mi WNW 10.4 mph - 0.00 in Snow Light Snow
8:54 PM 19.0 °F 5.0 °F 10.9 °F 71% 30.17 in 4.0 mi WNW 15.0 mph 26.5 mph 0.00 in Snow Light Snow
9:11 PM 19.4 °F 7.2 °F 12.2 °F 74% 30.06 in 9.0 mi NW 11.5 mph - 0.00 in   Overcast
9:30 PM 19.4 °F 5.5 °F 10.4 °F 68% 30.07 in 10.0 mi NW 15.0 mph - 0.00 in   Overcast
9:54 PM 18.0 °F 4.2 °F 9.0 °F 68% 30.18 in 10.0 mi NW 13.8 mph - 0.00 in   Mostly Cloudy
10:54 PM 18.0 °F 4.8 °F 7.0 °F 62% 30.18 in 10.0 mi NW 12.7 mph - N/A   Overcast
11:54 PM 17.1 °F 8.7 °F 7.0 °F 65% 30.17 in 10.0 mi WNW 5.8 mph - N/A   Mostly Cloudy